GOMX4-A (43197 NORAD) Tracking and Keplerian Element Data

This shows tracking and keplerian element data for the satellite.

Feedback or suggestion? Click here.




ElementValue
Catalog43197
NameGOMX4-A
Epoch Orbit4329
Epoch Day317.62850438
Epoch Year2018
RAAN83.6896
Inclination97.3673
Eccentricity0.0019177
Argument of Perigee358.0761
Mean Anonmoly122.7728
Mean Motion15.23822487
Decay Rate4.55E-06
L11 43197U 18015F 18317.62850438 .00000455 00000-0 21759-4 0 9997
L22 43197 97.3673 83.6896 0019177 358.0761 122.7728 15.23822487 43295

Live tracking and technical data element details for GOMX4-A (NORAD 43197). GOMX4-A can be tracked NOW for your location showing map with azimuth and elevation plus other details from your city location.

Track the satellite on the map from your city or location and see movement details for azimuth, elevation, latitude, longitude, range, height, and movement on the map or in text.







IsCatalogInMostPopularTable: catalog: 43197, numindb: 120
Update: records affected: 1



GetName: 43197 GOMX4-A

Hit Count: updated at: Wed, 14 Nov 2018 11:21:15 GMT